Weather History for Eau Claire, WI

Change the Weather History Date:

Friday, June 14, 2013

  Actual Average Record
Temperature  
Mean Temperature 65 °F 67 °F  
Max Temperature 78 °F 78 °F 98 °F (1987)
Min Temperature 51 °F 55 °F 40 °F (1958)
Degree Days  
Heating Degree Days 0 2  
Month to date heating degree days 63 43  
Since 1 June heating degree days 63 43  
Since 1 July heating degree days 8300 7941  
Cooling Degree Days 0 4  
Month to date cooling degree days 6 37  
Year to date cooling degree days 38 69  
Since 1 June cooling degree days 6 37  
Growing Degree Days 15 (Base 50)    
Moisture  
Dew Point 54 °F    
Average Humidity 67    
Maximum Humidity 93    
Minimum Humidity 40    
Precipitation  
Precipitation 0.06 in 0.14 in 2.47 in (1938)
Month to date precipitation 1.35 1.91  
Year to date precipitation 21.40 11.55  
Snow  
Snow 0.00 in 0.00 in 0.00 in ()
Month to date snowfall 0.0 0.0  
Since 1 June snowfall 0.0 0.0  
Since 1 July snowfall 84.3 46.8  
Snow Depth 0.00 in    
Sea Level Pressure  
Sea Level Pressure 30.03 in    
Wind  
Wind Speed 8 mph (SE)    
Max Wind Speed 17 mph    
Max Gust Speed 23 mph    
Visibility 10 miles    
Events Rain , Thunderstorm    
T = Trace of Precipitation, MM = Missing Value Source: NWS Daily Summary

Daily Weather History Graph

Daily Weather History Graph

Search for Another Location

Airport:

Trip Planner

Search our weather history database for the weather conditions in past years. The results will help you decide how hot, cold, wet, or windy it might be!

Date:

Astronomy

Jun. 14, 2013 Rise Set
Actual Time 5:19 AM CDT 8:53 PM CDT
Civil Twilight 4:41 AM CDT 9:30 PM CDT
Nautical Twilight 3:52 AM CDT 10:20 PM CDT
Astronomical Twilight 2:48 AM CDT 11:24 PM CDT
Moon 11:07 AM CDT (6/14) No Moon Set
Length of Visible Light 16h 48m
Length of Day
15h 34m
Waxing Crescent, 30% of the Moon is Illuminated
Jun 14
Waxing Crescent
Jun 16
First Quarter
Jun 23
Full
Jun 29
Last Quarter
Jul 8
New

Hourly Weather History & Observations

Time (CDT) Temp. Dew Point Humidity Pressure Visibility Wind Dir Wind Speed Gust Speed Precip Events Conditions
12:56 AM 55.0 °F 51.1 °F 86% 30.09 in 10.0 mi NE 5.8 mph - N/A   Clear
1:56 AM 55.0 °F 52.0 °F 89% 30.09 in 10.0 mi NE 5.8 mph - N/A   Clear
2:56 AM 55.9 °F 52.0 °F 87% 30.10 in 10.0 mi NE 3.5 mph - N/A   Clear
3:56 AM 53.1 °F 52.0 °F 96% 30.07 in 10.0 mi NE 8.1 mph - N/A   Clear
4:56 AM 53.1 °F 51.1 °F 93% 30.09 in 10.0 mi NE 3.5 mph - N/A   Clear
5:56 AM 54.0 °F 52.0 °F 93% 30.11 in 10.0 mi Calm Calm - N/A   Clear
6:56 AM 57.9 °F 53.1 °F 84% 30.12 in 10.0 mi SSE 3.5 mph - N/A   Clear
7:56 AM 61.0 °F 53.1 °F 75% 30.11 in 10.0 mi Variable 4.6 mph - N/A   Clear
8:56 AM 64.9 °F 53.1 °F 65% 30.11 in 10.0 mi SE 8.1 mph - N/A   Clear
9:56 AM 66.9 °F 52.0 °F 59% 30.11 in 10.0 mi SE 10.4 mph - N/A   Clear
10:56 AM 70.0 °F 51.1 °F 51% 30.09 in 10.0 mi SE 10.4 mph - N/A   Clear
11:56 AM 72.0 °F 52.0 °F 49% 30.08 in 10.0 mi SE 12.7 mph - N/A   Clear
12:56 PM 73.9 °F 52.0 °F 46% 30.06 in 10.0 mi South 6.9 mph 16.1 mph N/A   Clear
1:56 PM 75.9 °F 52.0 °F 43% 30.05 in 10.0 mi SE 11.5 mph - N/A   Clear
2:56 PM 77.0 °F 51.1 °F 40% 30.02 in 10.0 mi South 13.8 mph 23.0 mph N/A   Clear
3:56 PM 75.9 °F 53.1 °F 45% 30.00 in 10.0 mi South 8.1 mph - N/A   Clear
4:56 PM 75.0 °F 54.0 °F 48% 29.97 in 10.0 mi South 9.2 mph 18.4 mph N/A   Scattered Clouds
5:56 PM 77.0 °F 55.0 °F 47% 29.96 in 10.0 mi South 10.4 mph - N/A   Partly Cloudy
6:56 PM 75.0 °F 53.1 °F 46% 29.97 in 10.0 mi South 9.2 mph - N/A   Mostly Cloudy
7:56 PM 73.9 °F 54.0 °F 50% 29.94 in 10.0 mi SSE 9.2 mph - N/A   Partly Cloudy
8:56 PM 72.0 °F 54.0 °F 53% 29.93 in 10.0 mi SSE 6.9 mph - N/A   Partly Cloudy
9:56 PM 70.0 °F 57.0 °F 63% 29.95 in 10.0 mi SSE 5.8 mph - 0.00 in Rain Light Rain
10:11 PM 69.8 °F 55.4 °F 60% 29.96 in 10.0 mi South 5.8 mph - 0.00 in Thunderstorm Mostly Cloudy
10:56 PM 66.0 °F 62.1 °F 87% 29.91 in 10.0 mi East 8.1 mph - 0.05 in Thunderstorm Thunderstorm
11:21 PM 66.2 °F 59.0 °F 78% 29.93 in 10.0 mi SE 11.5 mph - N/A   Mostly Cloudy
11:56 PM 66.9 °F 59.0 °F 76% 29.94 in 10.0 mi SSE 9.2 mph - N/A   Overcast